AirNav   Everest Fuels
 
 399 users online  

0WI8 Oconomowoc Airport
Oconomowoc, Wisconsin, USA

GOING TO OCONOMOWOC?


FAA INFORMATION EFFECTIVE 10 SEPTEMBER 2020

Location

FAA Identifier: 0WI8
Lat/Long: 43-08-20.0210N 088-28-20.3540W
43-08.333683N 088-28.339233W
43.1388947,-88.4723206
(estimated)
Elevation: 885 ft. / 270 m (estimated)
Variation: 01W (1985)
From city: 3 miles NE of OCONOMOWOC, WI
Time zone: UTC -5 (UTC -6 during Standard Time)
Zip code: 53066

Airport Operations

Airport use: Private use. Permission required prior to landing
Activation date: 03/1969
Control tower: no
ARTCC: CHICAGO CENTER
FSS: GREEN BAY FLIGHT SERVICE STATION
Attendance: UNATNDD
Wind indicator: yes
Segmented circle: no

Airport Communications

WX AWOS-3 at RYV (11 nm W): 119.975 (920-261-0734)
WX AWOS-3 at UES (12 nm SE): 118.875 (262-521-5226)
WX AWOS-3 at MWC (19 nm E): PHONE 414-461-2954

Nearby radio navigation aids

VOR radial/distance  VOR name  Freq  Var
BAEr277/8.3BADGER VOR/DME116.4002E
BJBr223/(22.8)WEST BEND VOR109.8001W
MSNr088/38.0MADISON VORTAC108.6003E

 
NDB name  Hdg/Dist  Freq  Var  ID
ROCK RIVER102/11.337101WRYV .-. -.-- ...-
JUNEAU151/20.134401WUNU ..- -. ..-
LAKE LAWN013/26.940402WLVV .-.. ...- ...-

Airport Services

Airframe service: NONE
Powerplant service: NONE

Runway Information

Runway 18/36

Dimensions: 1400 x 200 ft. / 427 x 61 m
Surface: turf
RUNWAY 18  RUNWAY 36
Traffic pattern: leftleft
Obstructions: nonetrees

Runway 9/27

Dimensions: 1200 x 100 ft. / 366 x 30 m
Surface: turf
Operational restrictions: CLSD INDEF.
RUNWAY 9  RUNWAY 27
Traffic pattern: leftleft

Airport Ownership and Management from official FAA records

Ownership: Privately-owned
Owner: ROBERT & WENDY NEWBURG
N67 W36773 HWY K
OCONOMOWOC, WI 53066
Phone 920-474-3122
Manager: ROBERT NEWBURG
N67 W36773 HWY K
OCONOMOWOC, WI 53066
Phone 920-474-3122

Airport Operational Statistics

Aircraft based on the field: 5
Single engine airplanes: 5
    
Aircraft operations: avg 42/week *
84% local general aviation
14% transient general aviation
1% military
* for 12-month period ending 24 July 2020

Additional Remarks

USE AT OWN RISK; LICENSED PILOTS ONLY.
FOR CD CTC CHICAGO ARTCC AT 630-906-8921.

Instrument Procedures

There are no published instrument procedures at 0WI8.

Some nearby airports with instrument procedures:

KRYV - Watertown Municipal Airport (11 nm W)
KUES - Waukesha County Airport (12 nm SE)
KHXF - Hartford Municipal Airport (13 nm N)
61C - Fort Atkinson Municipal Airport (18 nm SW)
KMWC - Lawrence J Timmerman Airport (19 nm E)
KUNU - Dodge County Airport (20 nm NW)
 
Loc | Ops | Rwys | IFR | FBO | Links
Com | Nav | Svcs | Stats | Notes
Area around 0WI8 (Oconomowoc Airport)
 
Road maps at: MapQuest Bing Google
 
Aerial photo
WARNING: Photo may not be current or correct
Aerial photo of 0WI8 (Oconomowoc Airport)
Do you have a better or more recent aerial photo of Oconomowoc Airport that you would like to share? If so, please send us your photo.

 
Sectional chart

 
Airport distance calculator
Flying to Oconomowoc Airport? Find the distance to fly.

From to 0WI8

Sunrise and sunset
Times for 19-Sep-2020
 Local
(UTC-5)
 Zulu
(UTC)
Morning civil twilight06:1111:11
Sunrise06:4011:40
Sunset18:5523:55
Evening civil twilight19:2300:23

Current date and time
Zulu (UTC)  19-Sep-2020 08:00:38
Local (UTC-5)  19-Sep-2020 03:00:38
 
METAR
KRYV 
11nm W 
190755Z AUTO 00000KT 10SM CLR 03/03 A3038 RMK AO2 T00300030
KUES 
17nm SE 
190735Z AUTO 00000KT 10SM CLR 02/01 A3039 RMK AO2
KUNU 
19nm NW 
190755Z AUTO 00000KT 10SM CLR 03/03 A3039 RMK AO2 T00340031
KMWC 
20nm E 
190735Z AUTO 00000KT 10SM CLR 04/02 A3039 RMK AO2
K57C 
21nm S 
190735Z AUTO 00000KT 2SM BR OVC001 03/03 A3038 RMK AO2 VIS 1/2V5 T00310031
TAF
KUES 
17nm SE 
181120Z 1812/1912 03008KT P6SM BKN035 FM181400 05009KT P6SM BKN040 FM190100 06004KT P6SM FEW040 FM190400 VRB03KT P6SM SKC
NOTAMs
Click for the latest NOTAMs
NOTAMs are issued by the DoD/FAA and will open in a separate window not controlled by AirNav.

 

 
 

Would you like to see your business listed on this page?

 If your business provides an interesting product or service to pilots, flight crews, aircraft, or users of the Oconomowoc Airport, you should consider listing it here.  To start the listing process, click on the button below
 
Add a business
 

Other Pages about Oconomowoc Airport

personal.pitnet.net/...
 
Update a link
 
Copyright © AirNav, LLC. All rights reserved. Privacy Policy  Contact